When you browse on this site, cookies collect data to enhance your experience and personalize the content and advertising you see.
Visit our Privacy Policy to learn more. By continuing to use the site, you agree to this use of cookies and data.
  • In Romania
  • List of Countries
  • For 7 days
  • Water Temperature
  • Satellite Maps
  • Weather Map
  • Weather Widgets
  • user-avatar
    Login

    Hourly Weather Quito

    Today, 24 March, Sunday

    Time Temperature Precipitation Wind Pressure Humidity
    00:00 +19°C° 0 mm 1 mps 622 mmHg 83%
    01:00 +16°C° 0 mm 0 mps 622 mmHg 85%
    02:00 +16°C° 0 mm 0 mps 622 mmHg 86%
    03:00 +16°C° 0 mm 0 mps 621 mmHg 87%
    04:00 +16°C° 0 mm 0 mps 621 mmHg 88%
    05:00 +16°C° 0 mm 0 mps 622 mmHg 87%
    06:00 +19°C° 0 mm 1 mps 622 mmHg 85%
    07:00 +19°C° 0 mm 1 mps 622 mmHg 84%
    08:00 +21°C° 0 mm 1 mps 623 mmHg 73%
    09:00 +24°C° 0 mm 2 mps 624 mmHg 62%
    10:00 +26°C° 0 mm 3 mps 625 mmHg 52%
    11:00 +27°C° 0 mm 3 mps 624 mmHg 50%
    12:00 +27°C° 0 mm 3 mps 624 mmHg 48%
    13:00 +28°C° 0 mm 4 mps 624 mmHg 47%
    14:00 +27°C° 0 mm 3 mps 623 mmHg 47%
    15:00 +27°C° 0 mm 2 mps 623 mmHg 48%
    16:00 +27°C° 0 mm 2 mps 622 mmHg 49%
    17:00 +25°C° 0 mm 1 mps 622 mmHg 55%
    18:00 +23°C° 0 mm 1 mps 622 mmHg 61%
    19:00 +21°C° 0 mm 1 mps 621 mmHg 67%
    20:00 +21°C° 0 mm 1 mps 622 mmHg 66%
    21:00 +21°C° 0 mm 1 mps 622 mmHg 65%
    22:00 +19°C° 0 mm 0 mps 623 mmHg 64%
    23:00 +18°C° 0 mm 0 mps 623 mmHg 67%

    Tomorrow, 25 March, Monday

    Time Temperature Precipitation Wind Pressure Humidity
    00:00 +18°C° 0 mm 0 mps 622 mmHg 69%
    01:00 +19°C° 0 mm 1 mps 622 mmHg 72%
    02:00 +16°C° 0 mm 0 mps 621 mmHg 73%
    03:00 +16°C° 0 mm 0 mps 621 mmHg 75%
    04:00 +16°C° 0 mm 0 mps 621 mmHg 76%
    05:00 +16°C° 0 mm 0 mps 621 mmHg 77%
    06:00 +17°C° 0 mm 0 mps 622 mmHg 77%
    07:00 +17°C° 0 mm 0 mps 622 mmHg 78%
    08:00 +21°C° 0 mm 2 mps 623 mmHg 69%
    09:00 +24°C° 0 mm 3 mps 624 mmHg 60%
    10:00 +26°C° 0 mm 4 mps 624 mmHg 51%
    11:00 +27°C° 0 mm 4 mps 624 mmHg 49%
    12:00 +28°C° 0 mm 4 mps 624 mmHg 47%
    13:00 +28°C° 0 mm 4 mps 623 mmHg 45%
    14:00 +28°C° 0 mm 3 mps 622 mmHg 50%
    15:00 +27°C° 0 mm 3 mps 622 mmHg 54%
    16:00 +27°C° 0 mm 2 mps 621 mmHg 58%
    17:00 +25°C° 0 mm 2 mps 621 mmHg 63%
    18:00 +23°C° 0 mm 1 mps 621 mmHg 68%
    19:00 +21°C° 0 mm 1 mps 621 mmHg 72%
    20:00 +19°C° 0 mm 0 mps 621 mmHg 72%
    21:00 +18°C° 0 mm 0 mps 622 mmHg 72%
    22:00 +18°C° 0 mm 0 mps 622 mmHg 72%
    23:00 +17°C° 0 mm 0 mps 622 mmHg 74%

    Day after tomorrow, 26 March, Tuesday

    Time Temperature Precipitation Wind Pressure Humidity
    00:00 +16°C° 0 mm 0 mps 621 mmHg 75%
    01:00 +16°C° 0 mm 0 mps 621 mmHg 77%
    02:00 +16°C° 0 mm 0 mps 621 mmHg 78%
    03:00 +15°C° 0 mm 0 mps 620 mmHg 79%
    04:00 +15°C° 0 mm 0 mps 620 mmHg 80%
    05:00 +16°C° 0 mm 0 mps 621 mmHg 80%
    06:00 +18°C° 0 mm 1 mps 622 mmHg 80%
    07:00 +19°C° 0 mm 1 mps 622 mmHg 80%
    08:00 +21°C° 0 mm 1 mps 623 mmHg 72%
    09:00 +24°C° 0 mm 1 mps 624 mmHg 64%
    10:00 +26°C° 0 mm 1 mps 626 mmHg 56%
    11:00 +27°C° 0 mm 2 mps 625 mmHg 51%
    12:00 +28°C° 0 mm 2 mps 624 mmHg 46%
    13:00 +28°C° 0 mm 2 mps 624 mmHg 41%
    14:00 +28°C° 0 mm 2 mps 623 mmHg 45%
    15:00 +27°C° 0 mm 2 mps 623 mmHg 49%
    16:00 +27°C° 0 mm 2 mps 622 mmHg 53%
    17:00 +25°C° 0 mm 2 mps 622 mmHg 60%
    18:00 +23°C° 0 mm 1 mps 622 mmHg 68%
    19:00 +18°C° 0 mm 0 mps 622 mmHg 76%
    20:00 +18°C° 0.2 mm 0 mps 622 mmHg 79%
    21:00 +20°C° 0.2 mm 1 mps 623 mmHg 81%
    22:00 +19°C° 0.2 mm 1 mps 623 mmHg 84%
    23:00 +19°C° 0.7 mm 1 mps 623 mmHg 87%

    27 March, Wednesday

    Time Temperature Precipitation Wind Pressure Humidity
    00:00 +17°C° 0.7 mm 2 mps 623 mmHg 89%
    01:00 +17°C° 0.7 mm 2 mps 622 mmHg 92%
    02:00 +17°C° 0 mm 2 mps 622 mmHg 93%
    03:00 +16°C° 0 mm 2 mps 622 mmHg 94%
    04:00 +16°C° 0 mm 2 mps 622 mmHg 95%
    05:00 +18°C° 0 mm 1 mps 622 mmHg 93%
    06:00 +18°C° 0 mm 1 mps 623 mmHg 92%
    07:00 +18°C° 0 mm 1 mps 624 mmHg 90%
    08:00 +21°C° 0.7 mm 1 mps 625 mmHg 83%
    09:00 +23°C° 0.7 mm 1 mps 626 mmHg 75%
    10:00 +24°C° 0.7 mm 0 mps 627 mmHg 68%
    11:00 +26°C° 1.1 mm 1 mps 626 mmHg 68%
    12:00 +25°C° 1.1 mm 2 mps 625 mmHg 69%
    13:00 +25°C° 1.1 mm 3 mps 624 mmHg 69%
    14:00 +24°C° 1.5 mm 2 mps 624 mmHg 73%
    15:00 +23°C° 1.5 mm 2 mps 623 mmHg 77%
    16:00 +21°C° 1.5 mm 2 mps 623 mmHg 82%
    17:00 +21°C° 0.6 mm 1 mps 623 mmHg 85%
    18:00 +20°C° 0.6 mm 1 mps 624 mmHg 88%
    19:00 +19°C° 0.6 mm 1 mps 624 mmHg 91%
    20:00 +17°C° 0.9 mm 0 mps 624 mmHg 92%
    21:00 +17°C° 0.9 mm 0 mps 625 mmHg 93%
    22:00 +17°C° 0.9 mm 0 mps 625 mmHg 93%
    23:00 +16°C° 0.1 mm 0 mps 625 mmHg 94%

    28 March, Thursday

    Time Temperature Precipitation Wind Pressure Humidity
    00:00 +16°C° 0.1 mm 0 mps 624 mmHg 94%
    01:00 +16°C° 0.1 mm 0 mps 624 mmHg 95%
    02:00 +16°C° 0 mm 0 mps 623 mmHg 94%
    03:00 +16°C° 0 mm 0 mps 623 mmHg 94%
    04:00 +16°C° 0 mm 0 mps 623 mmHg 94%
    05:00 +16°C° 0 mm 0 mps 623 mmHg 94%
    06:00 +18°C° 0 mm 1 mps 623 mmHg 94%
    07:00 +18°C° 0 mm 1 mps 624 mmHg 94%
    08:00 +19°C° 0.1 mm 1 mps 624 mmHg 91%
    09:00 +20°C° 0.1 mm 1 mps 625 mmHg 89%
    10:00 +21°C° 0.1 mm 1 mps 625 mmHg 86%
    11:00 +21°C° 0.6 mm 1 mps 624 mmHg 85%
    12:00 +22°C° 0.6 mm 1 mps 624 mmHg 84%
    13:00 +22°C° 0.6 mm 1 mps 623 mmHg 82%
    14:00 +22°C° 1.7 mm 1 mps 623 mmHg 84%
    15:00 +22°C° 1.7 mm 1 mps 622 mmHg 86%
    16:00 +22°C° 1.7 mm 1 mps 622 mmHg 88%
    17:00 +21°C° 0.5 mm 1 mps 622 mmHg 88%
    18:00 +20°C° 0.5 mm 1 mps 623 mmHg 88%
    19:00 +17°C° 0.5 mm 0 mps 623 mmHg 88%
    20:00 +17°C° 0.3 mm 0 mps 623 mmHg 89%
    21:00 +16°C° 0.3 mm 0 mps 624 mmHg 89%
    22:00 +16°C° 0.3 mm 0 mps 624 mmHg 89%
    23:00 +16°C° 0 mm 0 mps 623 mmHg 90%

    29 March, Friday

    Time Temperature Precipitation Wind Pressure Humidity
    00:00 +15°C° 0 mm 0 mps 623 mmHg 90%
    01:00 +15°C° 0 mm 0 mps 623 mmHg 90%
    02:00 +15°C° 0 mm 0 mps 622 mmHg 91%
    03:00 +15°C° 0 mm 0 mps 622 mmHg 91%
    04:00 +15°C° 0 mm 0 mps 622 mmHg 91%
    05:00 +15°C° 0 mm 0 mps 623 mmHg 90%
    06:00 +16°C° 0 mm 0 mps 623 mmHg 89%
    07:00 +17°C° 0 mm 0 mps 624 mmHg 87%
    08:00 +21°C° 0.3 mm 1 mps 624 mmHg 81%
    09:00 +23°C° 0.3 mm 2 mps 625 mmHg 74%
    10:00 +25°C° 0.3 mm 2 mps 625 mmHg 68%
    11:00 +26°C° 0.1 mm 3 mps 625 mmHg 62%
    12:00 +26°C° 0.1 mm 3 mps 624 mmHg 57%
    13:00 +27°C° 0.1 mm 3 mps 624 mmHg 52%
    14:00 +27°C° 0.1 mm 3 mps 624 mmHg 53%
    15:00 +27°C° 0.1 mm 2 mps 623 mmHg 55%
    16:00 +27°C° 0.1 mm 2 mps 623 mmHg 57%
    17:00 +25°C° 0 mm 2 mps 623 mmHg 63%
    18:00 +23°C° 0 mm 1 mps 623 mmHg 69%
    19:00 +21°C° 0 mm 1 mps 623 mmHg 76%
    20:00 +20°C° 0 mm 1 mps 623 mmHg 80%
    21:00 +19°C° 0 mm 1 mps 623 mmHg 83%
    22:00 +19°C° 0 mm 1 mps 623 mmHg 87%
    23:00 +18°C° 0.1 mm 1 mps 622 mmHg 88%
    Show more